[[{"header":{"parameterUnit":"m.s-1","parameterCategory":1,"la1":30.2991,"la2":30.254,"lo1":-89.0895,"lo2":-89.0444,"dy":0.0017,"dx":0.0017,"nx":28,"ny":28,"refTime":"2024-04-09T03:00:00:Z","depth":0,"parameterNumber":2,"parameterNumberName":"U-component_of_WINDS"},"data":[0,0,0,0,0,0,0,0,0,0,0,0,0,0,0,0,0,0,0,0,0,0,0,0,0,0,0,0,0,0,0,0,0,0,0,0,0,0,0,0,0,0,0,0,0,0,0,0,0,0,0,0,0,0,0,0,0,0,-4.5615,-4.5615,0,-4.5657,-4.5658,-4.5658,-4.5647,-4.5646,-4.5645,-4.5645,-4.5685,-4.5687,-4.5689,0,0,0,0,0,0,0,0,0,0,0,0,0,-4.5523,-4.5525,-4.5615,-4.5615,-4.5616,-4.5657,-4.5658,-4.5658,-4.5647,-4.5646,-4.5645,-4.5644,-4.5685,-4.5687,-4.5689,0,0,0,0,0,0,0,0,0,0,0,0,0,-4.5564,-4.5526,-4.5615,-4.5615,-4.5616,-4.5657,-4.5658,-4.5658,-4.5647,-4.5646,-4.5645,-4.5644,-4.5684,-4.5687,-4.5689,-4.5731,0,0,-4.5698,-4.5699,0,0,0,0,0,0,0,0,-4.5562,-4.5567,-4.5615,-4.5615,-4.5616,-4.5646,-4.564,-4.5683,-4.5648,-4.5635,-4.5645,-4.5643,-4.5673,-4.5676,-4.5687,-4.5733,-4.5735,-4.5698,-4.57,-4.5701,-4.5702,0,0,0,0,0,0,0,-4.5559,-4.5566,-4.5631,-4.5615,-4.5616,-4.5613,-4.5618,-4.5648,-4.566,-4.5636,-4.5636,-4.5641,-4.5673,-4.5684,-4.5688,-4.5735,-4.5698,-4.57,-4.5702,-4.5703,-4.5819,-4.5821,0,0,0,0,0,0,-4.5556,-4.5563,-4.563,-4.5633,-4.5585,-4.5616,-4.5621,-4.5637,-4.566,-4.5662,-4.5642,-4.564,-4.568,-4.5685,-4.5689,-4.574,-4.5701,-4.5703,-4.5705,-4.5818,-4.582,-4.5821,0,0,0,0,0,0,-4.5554,-4.5562,-4.5628,-4.5598,-4.5606,-4.5619,-4.5637,-4.5639,-4.565,-4.5664,-4.5666,-4.5651,-4.5679,-4.5685,-4.5721,-4.5741,-4.5705,-4.5707,-4.5816,-4.5819,-4.5821,-4.5841,0,0,0,0,0,0,-4.5551,-4.5561,-4.5577,-4.5598,-4.5608,-4.566,-4.5639,-4.5641,-4.5655,-4.5654,-4.5674,-4.5676,-4.5679,-4.5717,-4.5724,-4.5744,-4.5709,-4.5815,-4.5817,-4.582,-4.5839,-4.5844,-4.5848,0,0,0,0,0,-4.5548,-4.558,-4.5578,-4.5586,-4.5628,-4.5661,-4.5666,-4.567,-4.5657,-4.5673,-4.5683,-4.5675,-4.5739,-4.5721,-4.5729,-4.575,-4.5813,-4.5817,-4.582,-4.5837,-4.5843,-4.5848,0,0,0,0,0,0,-4.5559,-4.5583,-4.5581,-4.5621,-4.5639,-4.5659,-4.5679,-4.5676,-4.5697,-4.5695,-4.5698,-4.5702,-4.5739,-4.5749,-4.5729,-4.5792,-4.5774,-4.5779,-4.5784,-4.579,-4.5795,-4.579,-4.5712,0,0,0,0,0,-4.5567,-4.5593,-4.5612,-4.5645,-4.5655,-4.5666,-4.568,-4.5682,-4.57,-4.5708,-4.572,-4.5737,-4.5761,-4.5777,-4.58,-4.5841,-4.5845,-4.586,-4.5865,-4.5868,-4.5872,-4.5895,-4.5901,-4.5832,-4.5832,-4.5832,0,0,-4.5582,-4.5598,-4.5613,-4.5648,-4.5662,-4.5688,-4.5672,-4.57,-4.5719,-4.5711,-4.5746,-4.5756,-4.5776,-4.5816,-4.5833,-4.5824,-4.5893,-4.5873,-4.5875,-4.5877,-4.5899,-4.5905,-4.5911,-4.5834,-4.5834,-4.5833,0,0,-4.5622,-4.5637,-4.5667,-4.5683,-4.5706,-4.5713,-4.5721,-4.5742,-4.5749,-4.5784,-4.578,-4.5803,-4.5844,-4.5858,-4.5871,-4.5921,-4.5915,-4.5929,-4.5952,-4.5974,-4.598,-4.5984,-4.6001,-4.6007,-4.5933,-4.5933,-4.5933,0,-4.5637,-4.5676,-4.5683,-4.5711,-4.5726,-4.5724,-4.5754,-4.5769,-4.5797,-4.5808,-4.5798,-4.5851,-4.5865,-4.5907,-4.592,-4.5931,-4.5939,-4.5925,-4.5979,-4.5984,-4.5988,-4.6004,-4.601,-4.5934,-4.5934,-4.5934,-4.5934,0,-4.5693,-4.5721,-4.5742,-4.5772,-4.579,-4.5819,-4.583,-4.5848,-4.5849,-4.5858,-4.5895,-4.5912,-4.5938,-4.5949,-4.595,-4.5992,-4.5986,-4.5978,-4.5959,-4.5996,-4.6011,-4.6017,-4.5936,-4.5936,-4.5935,-4.5935,0,0,-4.5737,-4.5773,-4.578,-4.5794,-4.5821,-4.5842,-4.5872,-4.59,-4.5914,-4.5936,-4.596,-4.5997,-4.599,-4.6005,-4.6008,-4.6028,-4.6066,-4.6017,-4.6018,-4.6024,-4.6113,-4.6118,-4.6125,-4.6064,-4.6065,-4.6066,-4.6111,0,-4.5778,-4.5831,-4.584,-4.5886,-4.5912,-4.5912,-4.5938,-4.5957,-4.5967,-4.599,-4.6001,-4.6027,-4.6016,-4.6025,-4.6046,-4.6057,-4.6083,-4.6054,-4.6085,-4.6086,-4.6077,-4.6133,-4.6137,-4.6179,-4.6117,-4.6118,-4.6119,0,-4.5832,-4.5856,-4.5906,-4.5931,-4.5942,-4.5965,-4.5992,-4.6014,-4.6037,-4.6043,-4.6061,-4.6063,-4.6094,-4.6077,-4.6119,-4.6099,-4.6113,-4.6121,-4.6123,-4.6123,-4.6103,-4.6133,-4.6192,-4.6198,-4.6129,-4.6128,-4.6127,0,-4.5857,-4.5903,-4.5938,-4.595,-4.5981,-4.5997,-4.6011,-4.6032,-4.6049,-4.6073,-4.6083,-4.611,-4.6124,-4.6145,-4.6154,-4.6141,-4.6196,-4.6179,-4.6201,-4.6201,-4.6209,-4.6208,-4.627,-4.6223,-4.6223,-4.6223,-4.6222,0,-4.59,-4.593,-4.595,-4.5972,-4.6006,-4.6016,-4.6049,-4.6062,-4.6082,-4.6106,-4.6108,-4.6131,-4.6142,-4.6166,-4.6174,-4.6208,-4.6215,-4.622,-4.6221,-4.6218,-4.6217,-4.6225,-4.6221,-4.6224,-4.6224,-4.6224,-4.6223,0,-4.5933,-4.5948,-4.5986,-4.6013,-4.6021,-4.6045,-4.6067,-4.6089,-4.61,-4.6131,-4.6139,-4.6156,-4.6185,-4.6197,-4.6232,-4.6237,-4.6276,-4.6276,-4.6268,-4.6268,-4.6288,-4.6286,-4.6355,-4.6364,-4.6313,-4.6313,-4.6314,0,-4.5958,-4.5981,-4.6012,-4.6029,-4.6043,-4.607,-4.6088,-4.61,-4.6119,-4.6148,-4.6165,-4.6195,-4.6218,-4.6265,-4.628,-4.6308,-4.6307,-4.633,-4.6311,-4.6308,-4.6305,-4.6303,-4.6305,-4.6332,-4.6332,-4.6333,-4.6333,0,-4.6001,-4.6008,-4.6034,-4.6063,-4.6085,-4.6108,-4.6131,-4.6144,-4.616,-4.6181,-4.6211,-4.623,-4.6268,-4.6296,-4.6325,-4.6339,-4.6338,-4.634,-4.6346,-4.6342,-4.6336,-4.6338,-4.6275,-4.6337,-4.6337,-4.6336,-4.6336,-4.6336,-4.6029,-4.605,-4.6075,-4.6105,-4.6124,-4.6146,-4.6167,-4.6183,-4.6209,-4.6241,-4.6247,-4.6279,-4.6303,-4.6342,-4.6357,-4.6383,-4.6377,-4.6386,-4.6388,-4.6389,-4.639,-4.6335,-4.6388,-4.6388,-4.6388,-4.6388,-4.6388,0,-4.607,-4.6088,-4.6115,-4.6148,-4.6171,-4.6172,-4.6198,-4.6217,-4.6246,-4.6269,-4.6294,-4.6329,-4.6358,-4.6378,-4.6407,-4.6424,-4.6424,-4.6431,-4.6428,-4.6431,-4.6394,-4.6385,-4.643,-4.643,-4.643,-4.643,-4.643,-4.643,-4.6095,-4.613,-4.6141,-4.6187,-4.6204,-4.6236,-4.6251,-4.6272,-4.629,-4.633,-4.6355,-4.6368,-4.639,-4.6422,-4.6448,-4.6453,-4.6463,-4.647,-4.6474,-4.6438,-4.6434,-4.6429,-4.6421,-4.6472,-4.6472,-4.6509,-4.6509,-4.6509]},{"header":{"parameterUnit":"m.s-1","parameterCategory":1,"la1":30.2991,"la2":30.254,"lo1":-89.0895,"lo2":-89.0444,"dy":0.0017,"dx":0.0017,"nx":28,"ny":28,"refTime":"2024-04-09T03:00:00:Z","depth":0,"parameterNumber":3,"parameterNumberName":"V-component_of_WINDS"},"data":[0,0,0,0,0,0,0,0,0,0,0,0,0,0,0,0,0,0,0,0,0,0,0,0,0,0,0,0,0,0,0,0,0,0,0,0,0,0,0,0,0,0,0,0,0,0,0,0,0,0,0,0,0,0,0,0,0,0,3.0735,3.0735,0,3.0714,3.0713,3.0713,3.0748,3.0749,3.075,3.0751,3.0723,3.0722,3.072,0,0,0,0,0,0,0,0,0,0,0,0,0,3.0803,3.0802,3.0735,3.0735,3.0735,3.0714,3.0713,3.0713,3.0747,3.0749,3.075,3.0752,3.0724,3.0722,3.072,0,0,0,0,0,0,0,0,0,0,0,0,0,3.0777,3.0801,3.0735,3.0749,3.0751,3.0714,3.0713,3.0713,3.0747,3.0749,3.0751,3.0752,3.0725,3.0722,3.0719,3.0666,0,0,3.0711,3.0709,0,0,0,0,0,0,0,0,3.0778,3.0774,3.0748,3.0748,3.075,3.0735,3.0727,3.0697,3.0747,3.0748,3.0751,3.0753,3.0725,3.0723,3.0715,3.0664,3.0663,3.071,3.0709,3.0708,3.0707,0,0,0,0,0,0,0,3.078,3.0775,3.0726,3.0747,3.0748,3.0756,3.0754,3.0722,3.0727,3.0748,3.0751,3.0748,3.0726,3.0717,3.0714,3.0663,3.0711,3.0708,3.0706,3.0705,3.0571,3.0569,0,0,0,0,0,0,3.0781,3.0776,3.0727,3.0726,3.0769,3.0753,3.0751,3.0738,3.0727,3.0727,3.0746,3.075,3.0721,3.0717,3.0713,3.0652,3.0708,3.0705,3.0703,3.0573,3.057,3.0568,0,0,0,0,0,0,3.0782,3.0776,3.0728,3.0752,3.0746,3.075,3.0735,3.0736,3.0727,3.0726,3.0727,3.0736,3.0722,3.0717,3.0678,3.0651,3.0704,3.0701,3.0575,3.0572,3.0569,3.0527,0,0,0,0,0,0,3.0784,3.0776,3.0756,3.0751,3.0745,3.0694,3.0733,3.0735,3.0723,3.0727,3.0717,3.0717,3.0723,3.0682,3.0676,3.0648,3.0699,3.0577,3.0574,3.057,3.0531,3.0523,3.0517,0,0,0,0,0,3.0786,3.0743,3.0755,3.0749,3.0721,3.0693,3.0689,3.0699,3.0721,3.0701,3.07,3.0717,3.0656,3.0678,3.0671,3.0642,3.0579,3.0575,3.057,3.0534,3.0525,3.0517,0,0,0,0,0,0,3.0742,3.0743,3.0756,3.0711,3.0702,3.0699,3.0673,3.0688,3.0671,3.0675,3.0687,3.0685,3.0643,3.0639,3.0664,3.0591,3.0621,3.0615,3.0596,3.0587,3.058,3.0582,3.0697,0,0,0,0,0,3.0728,3.0707,3.0708,3.0668,3.0663,3.0669,3.0657,3.0666,3.0656,3.0652,3.0649,3.0637,3.0616,3.0601,3.0581,3.0531,3.053,3.0508,3.0501,3.0495,3.0489,3.0465,3.0455,3.0554,3.0554,3.0554,0,0,3.0697,3.0695,3.068,3.0659,3.0653,3.063,3.0665,3.0638,3.0621,3.0647,3.0612,3.0609,3.0597,3.0553,3.0533,3.0548,3.0462,3.0489,3.0485,3.0482,3.0459,3.045,3.0442,3.0551,3.0552,3.0552,0,0,3.0629,3.0625,3.0593,3.0587,3.0579,3.0584,3.0576,3.0571,3.0571,3.0536,3.0556,3.0535,3.0497,3.0489,3.0479,3.0412,3.0427,3.0405,3.0367,3.0343,3.0335,3.0329,3.0306,3.0297,3.04,3.04,3.04,0,3.0591,3.0559,3.0573,3.0547,3.0537,3.0563,3.053,3.0523,3.0508,3.05,3.0517,3.0473,3.0466,3.0422,3.0406,3.0397,3.0389,3.0406,3.0336,3.0329,3.0323,3.0301,3.0292,3.0397,3.0397,3.0398,3.0398,0,3.0513,3.0491,3.0465,3.0453,3.0441,3.0411,3.042,3.0406,3.0417,3.042,3.0385,3.0379,3.0359,3.0349,3.0358,3.0306,3.0316,3.0334,3.0364,3.0311,3.0291,3.0282,3.0394,3.0394,3.0395,3.0396,0,0,3.0415,3.0415,3.0405,3.0401,3.0395,3.0377,3.0349,3.0332,3.032,3.0309,3.0286,3.0255,3.0273,3.0263,3.0271,3.025,3.0199,3.0271,3.0271,3.0259,3.0144,3.013,3.0121,3.021,3.0208,3.0207,3.0145,0,3.0349,3.0303,3.0316,3.0269,3.0249,3.0274,3.025,3.0244,3.0246,3.0229,3.0231,3.021,3.0234,3.0229,3.0209,3.021,3.0176,3.0214,3.0188,3.0187,3.019,3.011,3.0095,3.0037,3.0137,3.0136,3.0135,0,3.0265,3.0254,3.0206,3.0206,3.0198,3.0176,3.0164,3.0147,3.014,3.0144,3.0134,3.0148,3.012,3.0151,3.0113,3.0138,3.0129,3.0128,3.0126,3.0123,3.0157,3.0106,3.0019,3.001,3.0122,3.0123,3.0124,0,3.02,3.0173,3.0142,3.0137,3.0136,3.0121,3.0119,3.0115,3.0105,3.0093,3.0087,3.0071,3.0062,3.005,3.0059,3.008,3.002,3.0051,3.0022,3.0022,3.0008,3.0008,2.9918,3.0001,3.0001,3.0001,3.0001,0,3.0124,3.0094,3.0113,3.0093,3.006,3.0077,3.0043,3.0045,3.0041,3.0022,3.0042,3.0023,3.0037,3.0019,3.0026,2.9995,2.999,2.9992,2.9994,2.9991,2.999,2.9984,2.9989,2.9999,2.9999,3.0,3.0,0,3.0046,3.0057,3.0025,3.0028,3.0028,3.0004,3.0006,2.9988,2.9994,2.9969,2.9965,2.9972,2.9953,2.9962,2.994,2.9945,2.9905,2.9912,2.9908,2.991,2.9881,2.9884,2.9783,2.9772,2.9861,2.9861,2.986,0,2.9997,2.9975,2.9977,2.9967,2.9965,2.9948,2.9939,2.9955,2.9944,2.9937,2.992,2.9903,2.9891,2.9859,2.9862,2.9846,2.9853,2.982,2.9851,2.9849,2.9854,2.9856,2.9854,2.9813,2.9812,2.9811,2.981,0,2.991,2.9918,2.9905,2.9895,2.9884,2.9876,2.9869,2.986,2.9875,2.9862,2.9845,2.9835,2.9816,2.9799,2.9786,2.9783,2.9799,2.9801,2.9793,2.9789,2.9788,2.979,2.9891,2.9803,2.9803,2.9804,2.9804,2.9805,2.9846,2.9828,2.9828,2.9814,2.9811,2.9805,2.979,2.9795,2.9781,2.9767,2.9777,2.9756,2.9752,2.9737,2.9733,2.9717,2.973,2.9719,2.9716,2.9713,2.971,2.9791,2.9714,2.9714,2.9715,2.9715,2.9715,0,2.9761,2.9763,2.975,2.9742,2.9731,2.9749,2.9744,2.9733,2.9715,2.9711,2.97,2.968,2.9664,2.9668,2.9654,2.964,2.9647,2.9636,2.9637,2.9637,2.9698,2.9707,2.9631,2.9631,2.9631,2.9631,2.9631,2.9631,2.9715,2.9688,2.9695,2.9667,2.9669,2.965,2.9646,2.9641,2.9638,2.9616,2.9605,2.9608,2.9607,2.9594,2.958,2.9582,2.9576,2.9562,2.9566,2.9624,2.9632,2.964,2.9648,2.956,2.956,2.9506,2.9505,2.9505]}]]